SCP
-0 -0 -0 -0 -0 -0 -0 -0 0 0 -0 -0 -0 -0 -0 0 0 0 0 0 0 0 0 0 -0 -0 0 -0 0 0 -0 -0 -0 -0 -0 -0 -0 -0 -0 -0 0 -0 0 0 0 0 0
-0 -0 -0 -0 -0 -0 -0 0 0 0 -0 -0 -0 -0 0 0 0 0 0 0 0 0 0 0 -0 -0 0 0 0 0 -0 0 0 -0 0 -0 -0 -0 -0 -0 -0 -0 0 0 0 0 0
-0 -0 -0 -0 -0 -0 -0 -0 0 0 0 -0 0 -0 -0 -0 -0 0 0 0 0 0 0 0 0 0 0 0 0 0 0 0 0 -0 0 0 0 -0 -0 -0 -0 -0 -0 -0 0 0 0
-0 -0 -0 -0 -0 -0 -0 -0 -0 0 -0 -0 -0 -0 -0 -0 -0 -0 -0 -0 -0 -0 -0 0 0 0 0 0 0 0 0 0 0 0 0 0 0 -0 -0 -0 -0 -0 -0 -0 0 0 0
-0 -0 -0 -0 -0 -0 -0 -0 -0 -0 -0 -0 -0 -0 -0 -0 -0 -0 -0 -0 -0 -0 -0 0 0 0 0 0 0 0 0 0 0 -0 -0 0 0 -0 -0 -0 0 -0 -0 -0 0 0 0
-0 -0 -0 -0 -0 -0 -0 -0 -0 -0 -0 -0 -0 -0 -0 -0 -0 0 0 0 0 0 -0 -0 -0 0 0 0 0 0 0 0 0 0 0 0 -0 -0 -0 -0 0 -0 -0 -0 -0 0 -0
-0 -0 -0 -0 -0 -0 -0 -0 -0 -0 -0 -0 -0 -0 -0 -0 -0 0 0 0 0 -0 -0 -0 -0 0 0 0 0 0 0 0 -0 -0 -0 -0 0 -0 -0 0 0 0 -0 -0 0 0 -0
-0 -0 -0 -0 -0 -0 -0 -0 -0 -0 -0 -0 -0 -0 -0 -0 -0 0 0 0 0 0 0 0 0 0 0 0 -0 -0 -0 -0 -0 -0 -0 -0 0 -0 -0 0 0 0 -0 -0 -0 0 -0
-0 -0 -0 -0 -0 -0 -0 -0 -0 -0 -0 -0 -0 -0 -0 -0 -0 0 0 0 0 0 0 -0 -0 -0 -0 -0 -0 -0 -0 -0 0 -0 -0 -0 -0 0 0 0 -0 -0 -0 -0 0 -0 -0
-0 -0 -0 -0 -0 -0 -0 -0 -0 -0 -0 -0 -0 -0 -0 -0 0 0 0 0 0 0 0 -0 -0 -0 -0 -0 -0 -0 -0 -0 -0 -0 0 -0 0 0 0 0 0 -0 -0 0 0 -0 -0
-0 -0 -0 -0 -0 -0 -0 -0 -0 -0 -0 -0 -0 -0 -0 -0 -0 0 0 0 0 0 0 0 -0 0 -0 -0 -0 -0 0 -0 -0 -0 -0 0 0 -0 -0 0 0 -0 0 0 0 -0 -0
-0 -0 -0 -0 -0 -0 -0 -0 -0 -0 -0 -0 -0 -0 -0 0 0 -0 0 0 0 0 -0 -0 -0 -0 -0 -0 -0 -0 -0 -0 -0 -0 -0 -0 0 0 -0 0 -0 0 -0 0 0 0 0
-0 -0 -0 -0 -0 -0 -0 -0 -0 -0 -0 -0 -0 -0 -0 -0 0 0 -0 0 0 0 -0 -0 -0 -0 -0 -0 -0 -0 -0 -0 -0 -0 -0 0 -0 -0 0 -0 -0 0 -0 0 -0 -0 -0
-0 -0 -0 -0 -0 -0 -0 -0 -0 -0 -0 -0 -0 0 -0 -0 -0 -0 -0 -0 -0 0 -0 -0 -0 -0 -0 -0 -0 -0 -0 -0 -0 -0 -0 -0 0 -0 0 -0 -0 -0 -0 -0 -0 0 0
-0 -0 -0 -0 -0 -0 -0 -0 -0 -0 -0 -0 -0 -0 -0 -0 0 -0 -0 -0 0 0 0 0 -0 -0 -0 -0 -0 0 0 -0 0 -0 -0 -0 0 0 -0 0 -0 -0 -0 -0 -0 -0 0
-0 -0 -0 -0 -0 -0 -0 -0 -0 -0 -0 -0 -0 -0 -0 -0 -0 -0 -0 -0 0 0 0 0 -0 -0 0 -0 -0 -0 0 0 0 0 -0 0 -0 0 0 0 -0 -0 -0 -0 -0 -0 -0
-0 -0 -0 -0 -0 -0 -0 -0 -0 -0 -0 -0 -0 -0 -0 -0 -0 -0 -0 0 0 0 0 0 -0 0 -0 0 0 0 0 0 0 0 0 -0 -0 0 0 0 -0 0 -0 -0 -0 0 -0
0 0 -0 -0 -0 -0 -0 -0 -0 -0 -0 -0 -0 0 0 -0 -0 0 0 0 0 0 0 -0 -0 0 -0 0 0 -0 -0 0 0 0 -0 0 0 -0 -0 0 0 -0 -0 -0 0 -0 -0
0 0 0 -0 -0 -0 -0 -0 -0 -0 -0 -0 0 0 0 -0 -0 0 0 0 -0 -0 0 0 0 0 0 0 0 0 0 0 0 0 0 -0 0 -0 0 -0 0 -0 0 -0 -0 -0 0
-0 -0 -0 0 -0 -0 -0 -0 -0 -0 -0 0 0 0 0 0 0 -0 0 0 0 0 -0 -0 0 0 0 0 0 0 0 0 0 0 0 0 -0 -0 0 0 0 0 0 0 -0 0 -0
-0 -0 -0 0 -0 -0 -0 -0 -0 -0 -0 0 0 0 0 0 0 0 0 0 0 0 0 0 0 0 0 0 0 0 0 0 0 0 0 0 0 0 0 0 -0 -0 -0 -0 -0 -0 -0
0 0 0 0 0 0 0 -0 -0 -0 -0 0 0 0 0 0 0 0 0 0 0 0 0 0 0 0 0 0 0 0 0 0 0 0 0 0 0 0 -0 -0 -0 0 0 0 0 0 -0
0 0 0 0 0 0 0 0 0 0 0 0 0 0 0 0 0 0 0 0 0 0 0 0 0 0 0 0 0 0 0 0 -0 -0 -0 0 0 -0 0 -0 -0 -0 0 0 -0 -0 -0
0 0 0 0 0 0 0 0 0 0 0 0 0 0 0 0 0 0 0 0 0 0 0 0 0 0 0 0 0 0 0 0 0 -0 -0 -0 -0 -0 -0 -0 -0 0 0 0 0 0 0
0 0 0 0 0 0 0 0 0 0 0 0 0 0 0 0 0 0 0 0 0 0 0 0 0 0 0 0 0 0 0 0 0 0 0 0 -0 -0 -0 -0 -0 0 0 0 0 0 0
0 0 0 0 0 0 0 0 0 0 0 0 0 0 0 0 0 0 0 0 0 0 0 0 0 0 0 0 0 0 0 0 0 0 0 0 0 0 0 0 0 0 0 0 0 0 0
0 0 0 0 0 0 0 0 0 0 0 0 0 0 0 0 0 0 0 0 0 0 0 0 0 0 0 0 0 0 0 0 0 0 0 0 0 0 0 0 0 0 0 0 0 0 0
0 0 0 0 0 0 0 0 0 0 0 0 0 0 0 0 0 0 0 0 0 0 0 0 0 0 0 0 0 0 0 0 0 0 0 0 0 0 0 0 0 0 0 0 0 0 0
0 0 0 0 0 0 0 0 0 0 0 0 0 0 0 0 0 0 0 0 0 0 0 0 0 0 0 0 0 0 0 0 0 0 0 0 0 0 0 0 0 0 0 0 0 0 0
Wind_Speed_500mb
31 32 32 33 35 35 34 33 32 31 28 27 26 25 23 20 18 17 17 18 16 15 16 18 18 14 10 19 12 11 9 16 22 12 17 16 26 27 23 19 4 20 16 4 9 7 8
32 33 35 36 37 37 37 37 36 34 31 29 28 26 22 17 14 12 12 12 12 11 11 13 15 14 11 30 4 13 2 17 14 14 15 14 19 21 26 16 18 17 6 6 8 8 12
34 34 35 37 38 39 40 40 38 36 33 30 27 24 19 14 11 7 6 7 6 7 8 8 11 15 17 10 6 7 13 20 12 15 14 11 14 20 27 24 12 13 13 22 12 8 11
34 34 36 37 39 40 41 42 41 38 34 30 25 21 17 12 11 8 5 3 2 3 2 3 10 12 11 8 10 14 17 17 18 17 16 15 21 28 30 26 38 23 15 15 16 15 5
35 36 37 38 40 41 42 43 42 39 34 27 22 18 12 11 13 9 4 3 3 3 4 9 9 11 13 5 16 19 21 15 18 16 19 21 22 31 30 32 12 48 8 12 24 17 11
36 37 38 39 41 41 43 44 43 39 34 26 20 12 7 11 14 10 10 10 9 10 10 12 10 15 13 16 20 23 23 12 16 17 23 26 30 29 28 28 10 23 17 16 16 10 13
39 39 39 40 42 42 44 46 45 42 35 26 20 8 1 8 12 11 4 1 4 6 17 17 28 4 13 12 16 20 24 17 17 19 27 37 24 29 38 22 22 21 25 23 17 9 11
40 40 41 42 43 46 47 48 47 43 36 28 18 4 5 4 5 8 10 7 13 6 8 8 12 9 9 10 21 24 26 23 25 29 36 27 26 33 35 18 24 29 32 29 27 12 20
41 41 43 44 46 48 50 49 49 44 35 31 12 4 8 2 4 5 5 7 7 7 7 14 16 12 13 17 18 31 32 34 21 28 30 25 35 17 18 27 31 31 31 36 20 21 36
41 41 44 46 49 52 52 51 50 44 34 26 6 5 8 5 3 2 2 5 13 9 10 21 18 12 14 13 11 12 28 24 18 23 19 18 20 13 23 26 23 30 27 27 16 25 13
42 43 44 47 50 53 54 53 51 45 35 16 3 6 10 11 5 7 5 11 12 6 3 4 14 11 10 20 18 24 18 19 27 17 12 4 6 13 19 12 18 27 26 23 28 26 32
44 45 45 48 51 54 56 55 53 46 33 11 2 6 9 7 8 9 12 16 9 16 10 13 13 20 25 21 10 14 23 23 16 15 20 27 2 13 21 16 19 21 19 24 28 26 25
45 47 48 49 52 55 57 56 54 47 28 8 6 7 8 9 1 14 14 12 16 2 9 12 19 18 18 17 15 25 24 28 24 25 30 18 19 20 8 33 17 21 29 20 21 22 23
46 49 50 50 52 56 58 56 53 47 26 4 4 4 3 5 11 14 11 19 11 5 13 9 6 9 12 10 15 13 12 19 14 14 20 12 22 19 11 11 27 28 26 21 21 19 21
48 51 53 52 52 55 59 58 54 47 26 2 3 0 4 8 12 10 20 21 9 8 6 9 17 20 16 14 14 13 11 19 16 21 22 3 8 10 4 12 13 22 22 29 23 27 25
49 52 54 54 52 54 57 60 55 47 27 1 5 11 5 8 10 13 22 8 5 9 14 15 24 8 9 16 17 20 8 12 2 6 20 9 22 15 17 12 33 18 24 23 16 21 15
50 52 54 55 54 52 54 58 59 49 28 2 9 16 6 7 9 24 19 11 1 4 12 12 8 10 9 4 20 5 7 12 4 3 16 24 25 14 19 13 23 15 23 20 23 18 21
52 53 53 54 54 53 51 53 58 55 37 5 14 15 1 6 23 7 9 4 5 4 5 5 14 17 13 7 15 8 12 11 9 15 21 19 20 25 29 8 4 18 24 21 18 24 20
54 53 53 53 53 52 50 48 49 54 48 27 18 20 3 10 17 12 9 11 11 11 5 4 3 6 7 16 8 14 4 15 10 13 20 26 16 23 20 26 23 10 3 15 25 23 23
52 52 52 53 52 50 48 46 43 42 41 25 13 8 12 14 17 22 6 16 14 9 12 13 16 8 12 14 8 11 14 12 8 15 14 16 29 32 23 33 23 16 28 23 25 18 26
51 51 50 49 49 47 45 43 40 35 30 20 5 5 10 8 5 14 11 11 18 12 18 11 11 18 18 15 12 15 7 15 17 17 13 16 28 29 30 23 27 30 31 31 31 30 29
46 46 46 45 42 41 39 39 37 33 23 10 17 13 17 31 18 21 11 24 23 14 12 22 15 23 11 21 17 17 14 16 18 14 16 21 26 25 33 30 35 39 38 38 35 36 36
42 41 41 39 37 36 34 32 32 30 23 11 19 12 14 12 23 17 17 10 10 6 18 20 15 14 20 11 6 21 28 32 30 27 26 26 25 24 32 28 32 23 36 32 26 27 29
42 41 39 38 35 32 30 27 24 23 22 15 19 17 18 21 8 19 8 12 20 18 21 10 11 18 8 12 21 35 40 41 38 31 31 25 25 22 23 26 32 29 18 12 18 20 20
43 41 39 38 37 34 30 25 20 16 14 11 14 12 16 17 24 15 23 24 23 19 23 29 23 17 11 18 22 27 26 32 27 23 21 22 18 20 23 23 25 33 14 7 14 18 27
49 46 42 40 38 35 32 28 23 17 14 9 12 12 14 19 6 18 15 23 20 23 24 24 20 19 21 20 20 26 21 19 4 15 14 21 18 19 19 20 19 17 17 13 12 17 26
51 49 47 44 40 37 33 30 27 23 18 17 14 15 12 29 42 21 17 18 14 21 17 10 11 18 24 19 22 23 25 24 21 25 13 18 14 24 21 21 22 15 8 7 18 9 17
49 48 47 46 43 40 37 34 30 28 23 22 12 18 15 28 45 33 27 28 27 22 18 6 8 26 19 19 21 20 20 15 22 27 21 17 19 19 19 22 30 17 9 11 17 19 20
42 42 42 43 42 39 37 33 34 32 27 23 16 18 18 29 34 30 33 38 43 43 35 31 31 11 8 10 11 11 12 11 16 22 21 18 20 18 16 10 5 7 12 13 16 23 26
Wind_Direction_500mb
26 23 20 16 13 9 6 1 356 350 344 340 337 331 324 313 300 287 274 269 268 265 257 246 245 248 250 246 265 288 318 174 148 146 218 257 289 334 1 356 2 11 36 315 103 161 170
25 22 19 16 12 8 5 1 357 351 347 343 341 339 333 323 313 298 281 272 272 266 257 240 231 229 232 251 359 271 196 157 168 192 236 263 314 322 286 318 7 332 307 37 72 166 170
23 20 17 14 10 7 4 0 356 352 349 345 345 347 347 338 333 321 293 276 272 263 261 230 207 215 250 262 155 209 176 169 195 210 269 277 306 298 328 312 347 289 271 148 120 134 203
22 18 15 11 9 5 2 359 356 352 349 346 350 355 1 6 15 8 351 329 278 240 238 190 180 191 265 217 203 189 192 208 219 224 244 284 297 294 268 295 255 244 229 122 117 153 154
19 17 13 10 6 3 0 357 356 352 349 347 351 357 18 32 20 3 6 63 101 114 120 135 137 193 212 231 192 190 183 198 215 231 245 266 289 274 290 258 45 322 5 42 136 167 148
20 16 13 9 5 2 359 355 353 351 349 347 350 357 37 33 24 44 80 86 105 113 113 131 195 219 218 206 177 181 186 193 209 238 238 240 248 257 248 248 97 285 347 341 22 106 198
20 16 13 10 7 3 359 355 352 351 350 347 341 345 62 36 42 59 85 345 185 182 220 305 167 279 142 148 167 185 194 206 227 233 246 216 260 255 254 359 349 312 296 302 320 49 302
21 17 14 10 8 5 1 356 353 352 348 343 332 295 203 41 50 56 46 292 22 345 174 184 187 250 190 202 178 186 188 208 206 239 234 255 249 260 284 344 293 287 285 275 259 18 295
19 17 15 12 9 6 3 358 355 353 347 342 328 229 196 214 322 297 282 357 342 317 220 152 169 189 169 198 213 171 194 211 234 242 256 257 288 6 314 282 279 265 264 288 355 314 270
17 15 14 12 9 7 4 0 357 354 347 344 333 197 181 173 72 304 285 282 329 291 200 142 167 135 166 228 154 142 200 232 227 271 249 266 288 320 279 269 271 272 288 288 303 281 293
17 15 12 10 8 6 4 3 360 355 349 350 352 183 183 196 215 284 277 316 312 275 249 123 107 138 185 253 122 183 195 226 270 239 223 266 289 245 248 296 344 297 327 292 281 275 270
14 13 11 9 8 6 4 5 3 358 353 357 55 157 180 231 263 260 298 301 312 238 87 130 139 181 187 210 155 142 193 230 294 271 238 273 241 267 290 316 263 291 276 253 242 254 265
10 9 9 9 8 5 4 5 5 0 1 23 111 144 170 177 4 284 294 283 252 294 195 149 154 191 219 159 136 166 188 200 226 226 220 190 220 215 233 271 209 231 248 250 217 216 235
5 4 5 6 7 6 4 4 7 3 5 46 120 141 166 259 270 293 287 255 281 340 65 125 218 196 205 170 137 169 194 221 188 283 276 300 176 199 146 330 339 309 327 309 321 297 322
358 359 360 1 3 4 4 3 6 8 4 42 167 358 277 285 293 290 273 262 54 11 342 298 192 214 145 192 288 228 262 22 23 333 323 315 187 120 258 329 313 331 274 349 311 296 282
351 353 354 356 358 1 2 2 3 9 2 282 224 243 215 293 283 279 263 337 58 331 294 246 278 289 264 148 230 226 164 87 64 321 298 13 288 162 144 239 250 254 329 293 262 251 258
342 345 347 351 353 356 359 1 1 7 8 275 243 244 170 307 278 252 262 68 47 109 316 297 304 248 303 304 279 268 53 103 283 340 304 311 292 278 208 279 351 310 287 252 254 301 307
335 338 341 344 347 351 356 359 2 1 11 308 272 254 134 304 255 260 314 33 23 288 200 283 292 322 300 8 283 274 308 56 4 310 296 341 315 295 293 20 335 281 288 299 276 278 254
327 331 334 338 341 344 349 356 1 2 2 0 293 302 288 243 266 229 104 225 278 250 224 259 265 269 30 292 289 254 256 82 329 290 4 334 302 309 291 178 154 243 285 315 302 282 283
321 326 328 330 334 337 342 349 356 2 357 353 292 271 176 232 276 285 284 244 204 220 284 289 312 277 257 241 198 289 253 138 296 314 26 298 274 277 299 321 335 305 298 302 297 280 295
318 321 323 325 329 332 336 342 350 357 5 12 303 46 332 287 166 299 288 301 258 216 223 250 242 264 288 287 244 246 256 281 209 156 264 266 279 288 293 299 293 290 283 278 275 281 288
319 320 322 325 328 329 332 337 346 356 18 8 338 338 336 280 269 263 222 254 260 255 260 266 234 279 283 275 306 323 328 289 286 258 255 260 271 276 277 278 279 272 270 273 267 269 266
319 319 321 326 329 330 331 335 343 355 17 15 348 312 295 276 267 252 270 258 272 341 256 275 312 294 244 320 4 303 294 286 282 281 279 284 289 291 281 296 291 284 261 263 264 266 268
318 319 321 322 325 327 329 332 337 349 9 33 334 326 281 276 220 278 329 273 265 250 274 254 260 262 8 314 295 274 259 260 263 267 269 271 265 273 276 282 270 274 28 334 315 304 297
311 312 314 317 322 322 322 322 323 324 333 344 335 331 306 282 294 290 248 256 260 244 243 255 258 255 296 282 271 270 255 240 247 259 257 253 266 270 264 255 269 274 263 208 331 320 335
303 302 303 306 312 315 314 313 307 301 294 300 301 300 289 293 294 334 292 264 266 250 233 220 236 254 268 261 265 255 257 290 248 189 221 256 243 261 250 269 281 52 58 6 332 265 15
290 293 295 296 299 302 303 303 301 292 278 270 249 291 276 273 272 266 253 299 252 272 279 296 210 244 233 250 249 251 251 254 248 261 194 217 249 248 244 252 265 57 3 327 261 39 1
283 285 287 288 289 292 293 292 292 287 274 258 223 266 257 273 268 273 269 258 259 251 269 59 246 229 253 235 253 256 246 251 234 265 278 245 237 251 229 268 271 43 285 297 7 332 341
290 287 285 284 283 285 285 282 281 280 274 258 263 254 261 257 254 283 262 253 249 254 277 265 247 306 292 259 235 287 266 252 259 265 198 242 267 293 311 2 68 306 330 343 325 310 305
Wind_Speed_850mb
31 32 32 33 35 35 34 33 32 31 28 27 26 25 23 20 18 17 17 18 16 15 16 18 18 14 10 19 12 11 9 16 22 12 17 16 26 27 23 19 4 20 16 4 9 7 8
32 33 35 36 37 37 37 37 36 34 31 29 28 26 22 17 14 12 12 12 12 11 11 13 15 14 11 30 4 13 2 17 14 14 15 14 19 21 26 16 18 17 6 6 8 8 12
34 34 35 37 38 39 40 40 38 36 33 30 27 24 19 14 11 7 6 7 6 7 8 8 11 15 17 10 6 7 13 20 12 15 14 11 14 20 27 24 12 13 13 22 12 8 11
34 34 36 37 39 40 41 42 41 38 34 30 25 21 17 12 11 8 5 3 2 3 2 3 10 12 11 8 10 14 17 17 18 17 16 15 21 28 30 26 38 23 15 15 16 15 5
35 36 37 38 40 41 42 43 42 39 34 27 22 18 12 11 13 9 4 3 3 3 4 9 9 11 13 5 16 19 21 15 18 16 19 21 22 31 30 32 12 48 8 12 24 17 11
36 37 38 39 41 41 43 44 43 39 34 26 20 12 7 11 14 10 10 10 9 10 10 12 10 15 13 16 20 23 23 12 16 17 23 26 30 29 28 28 10 23 17 16 16 10 13
39 39 39 40 42 42 44 46 45 42 35 26 20 8 1 8 12 11 4 1 4 6 17 17 28 4 13 12 16 20 24 17 17 19 27 37 24 29 38 22 22 21 25 23 17 9 11
40 40 41 42 43 46 47 48 47 43 36 28 18 4 5 4 5 8 10 7 13 6 8 8 12 9 9 10 21 24 26 23 25 29 36 27 26 33 35 18 24 29 32 29 27 12 20
41 41 43 44 46 48 50 49 49 44 35 31 12 4 8 2 4 5 5 7 7 7 7 14 16 12 13 17 18 31 32 34 21 28 30 25 35 17 18 27 31 31 31 36 20 21 36
41 41 44 46 49 52 52 51 50 44 34 26 6 5 8 5 3 2 2 5 13 9 10 21 18 12 14 13 11 12 28 24 18 23 19 18 20 13 23 26 23 30 27 27 16 25 13
42 43 44 47 50 53 54 53 51 45 35 16 3 6 10 11 5 7 5 11 12 6 3 4 14 11 10 20 18 24 18 19 27 17 12 4 6 13 19 12 18 27 26 23 28 26 32
44 45 45 48 51 54 56 55 53 46 33 11 2 6 9 7 8 9 12 16 9 16 10 13 13 20 25 21 10 14 23 23 16 15 20 27 2 13 21 16 19 21 19 24 28 26 25
45 47 48 49 52 55 57 56 54 47 28 8 6 7 8 9 1 14 14 12 16 2 9 12 19 18 18 17 15 25 24 28 24 25 30 18 19 20 8 33 17 21 29 20 21 22 23
46 49 50 50 52 56 58 56 53 47 26 4 4 4 3 5 11 14 11 19 11 5 13 9 6 9 12 10 15 13 12 19 14 14 20 12 22 19 11 11 27 28 26 21 21 19 21
48 51 53 52 52 55 59 58 54 47 26 2 3 0 4 8 12 10 20 21 9 8 6 9 17 20 16 14 14 13 11 19 16 21 22 3 8 10 4 12 13 22 22 29 23 27 25
49 52 54 54 52 54 57 60 55 47 27 1 5 11 5 8 10 13 22 8 5 9 14 15 24 8 9 16 17 20 8 12 2 6 20 9 22 15 17 12 33 18 24 23 16 21 15
50 52 54 55 54 52 54 58 59 49 28 2 9 16 6 7 9 24 19 11 1 4 12 12 8 10 9 4 20 5 7 12 4 3 16 24 25 14 19 13 23 15 23 20 23 18 21
52 53 53 54 54 53 51 53 58 55 37 5 14 15 1 6 23 7 9 4 5 4 5 5 14 17 13 7 15 8 12 11 9 15 21 19 20 25 29 8 4 18 24 21 18 24 20
54 53 53 53 53 52 50 48 49 54 48 27 18 20 3 10 17 12 9 11 11 11 5 4 3 6 7 16 8 14 4 15 10 13 20 26 16 23 20 26 23 10 3 15 25 23 23
52 52 52 53 52 50 48 46 43 42 41 25 13 8 12 14 17 22 6 16 14 9 12 13 16 8 12 14 8 11 14 12 8 15 14 16 29 32 23 33 23 16 28 23 25 18 26
51 51 50 49 49 47 45 43 40 35 30 20 5 5 10 8 5 14 11 11 18 12 18 11 11 18 18 15 12 15 7 15 17 17 13 16 28 29 30 23 27 30 31 31 31 30 29
46 46 46 45 42 41 39 39 37 33 23 10 17 13 17 31 18 21 11 24 23 14 12 22 15 23 11 21 17 17 14 16 18 14 16 21 26 25 33 30 35 39 38 38 35 36 36
42 41 41 39 37 36 34 32 32 30 23 11 19 12 14 12 23 17 17 10 10 6 18 20 15 14 20 11 6 21 28 32 30 27 26 26 25 24 32 28 32 23 36 32 26 27 29
42 41 39 38 35 32 30 27 24 23 22 15 19 17 18 21 8 19 8 12 20 18 21 10 11 18 8 12 21 35 40 41 38 31 31 25 25 22 23 26 32 29 18 12 18 20 20
43 41 39 38 37 34 30 25 20 16 14 11 14 12 16 17 24 15 23 24 23 19 23 29 23 17 11 18 22 27 26 32 27 23 21 22 18 20 23 23 25 33 14 7 14 18 27
49 46 42 40 38 35 32 28 23 17 14 9 12 12 14 19 6 18 15 23 20 23 24 24 20 19 21 20 20 26 21 19 4 15 14 21 18 19 19 20 19 17 17 13 12 17 26
51 49 47 44 40 37 33 30 27 23 18 17 14 15 12 29 42 21 17 18 14 21 17 10 11 18 24 19 22 23 25 24 21 25 13 18 14 24 21 21 22 15 8 7 18 9 17
49 48 47 46 43 40 37 34 30 28 23 22 12 18 15 28 45 33 27 28 27 22 18 6 8 26 19 19 21 20 20 15 22 27 21 17 19 19 19 22 30 17 9 11 17 19 20
42 42 42 43 42 39 37 33 34 32 27 23 16 18 18 29 34 30 33 38 43 43 35 31 31 11 8 10 11 11 12 11 16 22 21 18 20 18 16 10 5 7 12 13 16 23 26
Wind_Direction_850mb
26 23 20 16 13 9 6 1 356 350 344 340 337 331 324 313 300 287 274 269 268 265 257 246 245 248 250 246 265 288 318 174 148 146 218 257 289 334 1 356 2 11 36 315 103 161 170
25 22 19 16 12 8 5 1 357 351 347 343 341 339 333 323 313 298 281 272 272 266 257 240 231 229 232 251 359 271 196 157 168 192 236 263 314 322 286 318 7 332 307 37 72 166 170
23 20 17 14 10 7 4 0 356 352 349 345 345 347 347 338 333 321 293 276 272 263 261 230 207 215 250 262 155 209 176 169 195 210 269 277 306 298 328 312 347 289 271 148 120 134 203
22 18 15 11 9 5 2 359 356 352 349 346 350 355 1 6 15 8 351 329 278 240 238 190 180 191 265 217 203 189 192 208 219 224 244 284 297 294 268 295 255 244 229 122 117 153 154
19 17 13 10 6 3 0 357 356 352 349 347 351 357 18 32 20 3 6 63 101 114 120 135 137 193 212 231 192 190 183 198 215 231 245 266 289 274 290 258 45 322 5 42 136 167 148
20 16 13 9 5 2 359 355 353 351 349 347 350 357 37 33 24 44 80 86 105 113 113 131 195 219 218 206 177 181 186 193 209 238 238 240 248 257 248 248 97 285 347 341 22 106 198
20 16 13 10 7 3 359 355 352 351 350 347 341 345 62 36 42 59 85 345 185 182 220 305 167 279 142 148 167 185 194 206 227 233 246 216 260 255 254 359 349 312 296 302 320 49 302
21 17 14 10 8 5 1 356 353 352 348 343 332 295 203 41 50 56 46 292 22 345 174 184 187 250 190 202 178 186 188 208 206 239 234 255 249 260 284 344 293 287 285 275 259 18 295
19 17 15 12 9 6 3 358 355 353 347 342 328 229 196 214 322 297 282 357 342 317 220 152 169 189 169 198 213 171 194 211 234 242 256 257 288 6 314 282 279 265 264 288 355 314 270
17 15 14 12 9 7 4 0 357 354 347 344 333 197 181 173 72 304 285 282 329 291 200 142 167 135 166 228 154 142 200 232 227 271 249 266 288 320 279 269 271 272 288 288 303 281 293
17 15 12 10 8 6 4 3 360 355 349 350 352 183 183 196 215 284 277 316 312 275 249 123 107 138 185 253 122 183 195 226 270 239 223 266 289 245 248 296 344 297 327 292 281 275 270
14 13 11 9 8 6 4 5 3 358 353 357 55 157 180 231 263 260 298 301 312 238 87 130 139 181 187 210 155 142 193 230 294 271 238 273 241 267 290 316 263 291 276 253 242 254 265
10 9 9 9 8 5 4 5 5 0 1 23 111 144 170 177 4 284 294 283 252 294 195 149 154 191 219 159 136 166 188 200 226 226 220 190 220 215 233 271 209 231 248 250 217 216 235
5 4 5 6 7 6 4 4 7 3 5 46 120 141 166 259 270 293 287 255 281 340 65 125 218 196 205 170 137 169 194 221 188 283 276 300 176 199 146 330 339 309 327 309 321 297 322
358 359 360 1 3 4 4 3 6 8 4 42 167 358 277 285 293 290 273 262 54 11 342 298 192 214 145 192 288 228 262 22 23 333 323 315 187 120 258 329 313 331 274 349 311 296 282
351 353 354 356 358 1 2 2 3 9 2 282 224 243 215 293 283 279 263 337 58 331 294 246 278 289 264 148 230 226 164 87 64 321 298 13 288 162 144 239 250 254 329 293 262 251 258
342 345 347 351 353 356 359 1 1 7 8 275 243 244 170 307 278 252 262 68 47 109 316 297 304 248 303 304 279 268 53 103 283 340 304 311 292 278 208 279 351 310 287 252 254 301 307
335 338 341 344 347 351 356 359 2 1 11 308 272 254 134 304 255 260 314 33 23 288 200 283 292 322 300 8 283 274 308 56 4 310 296 341 315 295 293 20 335 281 288 299 276 278 254
327 331 334 338 341 344 349 356 1 2 2 0 293 302 288 243 266 229 104 225 278 250 224 259 265 269 30 292 289 254 256 82 329 290 4 334 302 309 291 178 154 243 285 315 302 282 283
321 326 328 330 334 337 342 349 356 2 357 353 292 271 176 232 276 285 284 244 204 220 284 289 312 277 257 241 198 289 253 138 296 314 26 298 274 277 299 321 335 305 298 302 297 280 295
318 321 323 325 329 332 336 342 350 357 5 12 303 46 332 287 166 299 288 301 258 216 223 250 242 264 288 287 244 246 256 281 209 156 264 266 279 288 293 299 293 290 283 278 275 281 288
319 320 322 325 328 329 332 337 346 356 18 8 338 338 336 280 269 263 222 254 260 255 260 266 234 279 283 275 306 323 328 289 286 258 255 260 271 276 277 278 279 272 270 273 267 269 266
319 319 321 326 329 330 331 335 343 355 17 15 348 312 295 276 267 252 270 258 272 341 256 275 312 294 244 320 4 303 294 286 282 281 279 284 289 291 281 296 291 284 261 263 264 266 268
318 319 321 322 325 327 329 332 337 349 9 33 334 326 281 276 220 278 329 273 265 250 274 254 260 262 8 314 295 274 259 260 263 267 269 271 265 273 276 282 270 274 28 334 315 304 297
311 312 314 317 322 322 322 322 323 324 333 344 335 331 306 282 294 290 248 256 260 244 243 255 258 255 296 282 271 270 255 240 247 259 257 253 266 270 264 255 269 274 263 208 331 320 335
303 302 303 306 312 315 314 313 307 301 294 300 301 300 289 293 294 334 292 264 266 250 233 220 236 254 268 261 265 255 257 290 248 189 221 256 243 261 250 269 281 52 58 6 332 265 15
290 293 295 296 299 302 303 303 301 292 278 270 249 291 276 273 272 266 253 299 252 272 279 296 210 244 233 250 249 251 251 254 248 261 194 217 249 248 244 252 265 57 3 327 261 39 1
283 285 287 288 289 292 293 292 292 287 274 258 223 266 257 273 268 273 269 258 259 251 269 59 246 229 253 235 253 256 246 251 234 265 278 245 237 251 229 268 271 43 285 297 7 332 341
290 287 285 284 283 285 285 282 281 280 274 258 263 254 261 257 254 283 262 253 249 254 277 265 247 306 292 259 235 287 266 252 259 265 198 242 267 293 311 2 68 306 330 343 325 310 305